Lapse_Rate
6.3 6.3 6.5 6.9 7.1 7.0 6.7 6.6 6.4 5.1 4.6 4.7 3.9 3.9 4.3 4.6 5.2 5.6 5.2 5.5 5.3 4.6 5.7 5.9 5.4 6.1 6.4 6.3 6.4 6.6 6.2 5.8 5.9 5.7 5.4 5.4 5.3 5.3 5.2 5.5 5.6 5.6 5.4 4.7 4.2 4.0 4.2 5.8 5.7 5.2 5.3 5.1 5.0 4.9
6.9 6.9 7.1 7.5 7.5 7.6 7.3 7.5 7.1 6.2 5.1 4.8 4.7 4.3 4.6 4.5 4.6 5.2 5.3 5.3 5.6 5.0 5.0 5.8 5.8 5.8 5.9 6.1 6.1 6.3 6.4 6.6 6.7 6.1 6.0 5.9 5.7 5.6 5.8 5.2 5.7 5.3 5.6 5.9 5.7 5.9 5.9 5.7 5.5 5.2 5.2 5.1 4.9 4.7
7.3 7.2 7.4 7.7 7.5 7.8 8.0 7.8 7.6 7.1 6.0 5.4 5.0 4.4 4.9 4.4 4.4 4.8 5.2 5.5 5.4 5.4 4.8 5.9 5.5 5.9 5.9 5.9 6.0 5.9 6.1 6.1 6.5 6.5 6.2 6.1 5.7 5.5 5.6 5.4 5.5 5.4 5.6 5.3 5.6 5.6 5.5 5.5 5.5 5.3 5.2 5.0 4.8 4.6
7.5 7.4 7.5 7.7 7.8 7.9 8.2 7.7 8.0 7.7 7.2 6.5 5.3 5.1 4.9 4.7 4.1 4.6 5.0 5.8 5.8 5.5 5.1 5.0 6.2 5.9 6.1 5.9 5.9 5.8 5.7 5.8 6.1 6.0 5.9 5.8 5.4 5.3 5.3 5.5 5.3 5.3 5.4 5.6 5.4 5.6 5.5 5.4 5.2 5.0 4.9 4.8 4.6 4.5
7.6 7.7 7.9 7.9 7.8 8.2 8.3 8.1 8.2 8.1 7.7 6.4 5.7 5.3 5.0 5.0 4.5 4.3 4.6 5.3 5.6 5.5 5.0 4.5 6.0 6.3 6.3 6.1 6.0 5.8 5.7 5.7 5.8 5.9 5.5 5.6 5.5 5.4 5.5 5.3 5.2 5.4 5.7 5.5 5.5 5.6 5.5 5.2 5.1 5.0 4.8 4.6 4.4 4.4
7.9 7.8 8.0 7.9 7.8 8.2 8.3 8.0 8.2 8.2 7.8 7.1 6.4 6.1 5.2 5.0 4.9 4.9 4.9 5.3 5.6 5.4 5.4 4.9 5.2 5.9 6.1 6.0 5.8 5.9 5.9 5.9 5.8 5.9 5.9 5.8 5.4 5.9 5.9 5.6 5.3 5.4 5.6 5.4 5.5 5.3 5.2 5.1 5.0 4.8 4.6 4.5 4.5 4.5
7.9 7.7 7.9 8.0 7.8 8.0 8.0 7.9 7.7 8.0 7.7 7.4 6.8 6.3 5.5 4.9 4.9 4.8 4.7 4.8 5.5 5.7 5.6 5.5 5.1 5.4 6.0 5.8 5.6 5.8 5.9 5.9 6.1 6.1 6.0 5.9 5.7 5.9 5.7 5.7 5.6 5.6 5.4 5.4 5.3 5.2 5.1 5.1 4.8 4.6 4.6 4.5 4.6 4.5
8.1 8.1 8.0 7.9 7.8 8.1 8.2 8.1 8.2 7.9 7.5 7.4 7.0 6.6 6.5 5.4 5.0 5.0 5.3 5.1 5.2 5.6 5.6 5.6 5.5 4.9 5.3 5.2 5.5 6.0 6.0 5.9 5.9 5.5 5.4 5.5 5.6 5.4 5.3 5.4 5.3 5.3 5.3 5.3 5.1 4.9 4.9 4.8 4.8 4.8 4.7 4.7 4.6 4.5
8.0 8.0 7.9 7.9 7.9 8.2 8.5 7.9 8.1 7.9 7.6 7.4 7.3 6.9 6.7 5.8 5.2 5.3 5.6 5.4 5.2 5.4 5.6 5.5 5.5 5.2 5.0 5.2 5.6 5.8 5.8 5.5 5.3 5.1 5.1 5.1 5.1 5.0 5.0 5.1 5.0 5.1 5.1 4.9 4.8 4.7 4.8 4.8 4.8 4.9 5.0 4.8 4.6 4.5
8.0 7.8 7.9 8.0 8.0 7.9 7.9 8.0 7.9 7.7 7.4 7.5 7.2 7.0 6.6 6.6 6.5 6.2 6.0 5.8 5.7 5.6 5.6 5.7 5.7 5.8 5.4 5.4 5.4 5.3 5.0 4.9 4.6 4.6 4.5 4.4 4.5 4.8 4.9 4.7 4.8 5.0 5.0 4.9 4.6 4.6 4.7 4.9 4.9 4.9 4.9 4.8 4.8 4.7
7.5 7.7 7.9 7.7 7.8 7.9 7.8 7.9 7.8 7.9 7.6 7.7 7.3 7.0 6.8 6.8 6.8 6.1 6.0 5.9 5.7 5.6 5.8 5.7 5.8 5.8 5.4 5.4 5.2 4.9 4.6 4.5 4.4 4.3 4.5 4.2 4.5 4.8 4.8 4.8 5.0 5.0 4.9 4.8 4.8 4.8 4.9 5.0 5.0 5.0 4.9 5.0 4.9 5.0
7.5 7.7 7.5 7.5 7.4 7.7 7.9 7.8 7.6 7.7 7.6 7.5 7.3 7.1 6.9 6.8 6.6 6.4 6.2 6.0 5.8 5.8 6.0 5.8 5.9 5.8 5.5 5.0 4.6 4.4 4.5 4.4 4.3 4.1 4.3 4.3 4.4 4.8 4.9 4.9 4.9 5.1 5.3 5.3 5.3 5.2 5.1 5.1 5.1 5.1 5.1 5.1 5.2 5.5
7.6 7.6 7.3 7.4 7.7 7.8 7.9 7.6 7.8 7.7 7.5 7.3 7.2 7.2 7.0 6.6 6.4 6.4 6.4 6.0 5.8 5.6 5.9 6.0 5.8 5.5 5.1 5.0 4.8 4.8 4.7 4.5 4.5 4.4 4.4 4.3 4.7 5.1 5.1 5.2 5.4 5.4 5.4 5.3 5.2 5.1 5.1 5.2 5.2 5.2 5.3 5.5 5.7 5.8
7.9 7.7 7.7 7.9 7.9 7.8 7.7 7.9 7.6 7.5 7.2 7.3 7.4 7.2 7.0 6.8 6.6 6.4 6.2 6.2 6.2 5.8 5.7 5.5 5.5 5.5 5.2 5.2 5.1 5.0 4.7 4.8 4.7 4.7 4.6 4.8 5.1 5.0 5.2 5.6 5.6 5.5 5.4 5.3 5.2 5.2 5.3 5.2 5.3 5.5 5.7 5.9 6.0 6.0
8.2 7.9 7.9 7.9 7.9 7.8 7.7 7.6 7.6 7.5 7.4 7.5 7.4 7.2 7.0 6.8 6.7 6.6 6.5 6.3 6.1 5.9 5.6 5.5 5.5 5.4 5.3 5.3 5.3 5.2 5.1 5.1 5.1 5.1 5.1 5.1 5.2 5.3 5.7 5.9 5.9 5.8 5.7 5.5 5.3 5.3 5.4 5.5 5.6 5.6 5.9 6.0 6.0 5.8
8.0 7.7 7.8 8.0 8.0 8.0 7.6 7.7 7.6 7.5 7.4 7.4 7.2 7.0 7.0 6.9 6.7 6.6 6.4 6.3 6.2 6.1 6.0 5.9 5.7 5.6 5.5 5.5 5.5 5.6 5.7 5.7 5.5 5.6 5.7 5.8 5.9 6.1 6.1 6.0 5.9 5.8 5.6 5.3 5.1 5.2 5.6 5.8 5.6 5.9 6.0 5.9 5.7 5.5
7.7 7.6 7.8 7.9 7.9 7.9 7.6 7.6 7.6 7.5 7.4 7.3 7.1 7.2 7.2 7.0 6.9 6.8 6.7 6.6 6.6 6.5 6.5 6.5 6.3 6.1 6.0 6.1 6.0 6.0 6.0 6.1 6.1 6.1 6.1 6.2 6.2 6.2 6.1 5.9 5.7 5.6 5.4 5.5 5.8 5.9 5.9 5.6 5.5 5.4 5.8 5.7 5.4 5.3
7.7 7.7 7.9 7.9 7.8 7.7 7.5 7.7 7.6 7.6 7.5 7.5 7.3 7.3 7.3 7.4 7.2 7.0 6.9 6.8 6.8 6.9 7.0 6.9 6.7 6.7 6.6 6.5 6.4 6.5 6.3 6.4 6.6 6.6 6.6 6.5 6.4 6.3 6.2 6.0 5.9 5.9 5.9 6.0 6.1 6.0 5.8 5.3 5.4 5.7 5.7 5.6 5.4 5.2
7.6 7.8 7.9 7.9 7.8 7.6 7.6 7.6 7.5 7.5 7.3 7.4 7.5 7.6 7.5 7.3 7.2 7.1 7.1 7.1 7.1 7.2 7.3 7.2 7.2 7.0 6.9 6.7 6.6 6.5 6.5 6.4 6.4 6.4 6.4 6.4 6.3 6.3 6.2 6.2 6.3 6.5 6.3 6.2 6.2 6.1 5.6 5.6 5.7 5.6 5.5 5.3 5.2 5.0
7.2 7.6 7.8 7.9 7.9 7.7 7.6 7.6 7.4 7.5 7.4 7.5 7.5 7.4 7.4 7.3 7.2 7.2 7.2 7.2 7.3 7.2 7.2 7.1 6.9 6.8 6.7 6.6 6.6 6.5 6.4 6.2 6.2 6.2 6.3 6.5 6.5 6.5 6.5 6.5 6.4 6.3 6.2 6.1 5.9 5.6 5.7 5.7 5.5 5.3 5.1 5.1 5.0 4.9
7.6 7.8 8.0 8.1 8.1 7.8 7.8 7.6 7.7 7.5 7.5 7.4 7.5 7.4 7.3 7.2 7.2 7.2 7.1 7.2 7.2 7.1 7.0 6.9 6.8 6.8 6.8 6.6 6.4 6.4 6.3 6.2 6.2 6.3 6.4 6.5 6.4 6.4 6.3 6.2 6.1 5.9 5.7 5.4 5.4 5.5 5.5 5.4 5.3 5.2 5.2 5.1 5.0 5.1
7.9 8.1 8.0 7.9 7.9 7.8 7.5 7.3 7.5 7.6 7.5 7.6 7.5 7.4 7.4 7.3 7.4 7.3 7.2 7.2 7.2 7.1 7.0 6.9 6.8 6.7 6.6 6.6 6.6 6.5 6.3 6.2 6.3 6.2 6.1 6.0 5.9 5.8 5.7 5.6 5.6 5.5 5.3 5.2 5.1 5.1 5.2 5.2 5.1 5.0 5.0 5.0 5.0 5.1
8.0 8.0 7.9 8.0 8.0 7.9 7.7 7.7 7.5 7.5 7.6 7.5 7.5 7.5 7.4 7.4 7.4 7.3 7.3 7.4 7.3 7.1 6.9 6.8 6.9 6.9 6.8 6.6 6.4 6.1 5.9 5.8 5.7 5.6 5.6 5.5 5.5 5.5 5.4 5.3 5.2 5.1 5.0 5.0 5.1 5.2 5.2 5.1 5.1 5.0 5.1 5.1 5.2 5.2
7.9 7.9 7.7 7.9 8.0 8.1 7.9 7.9 7.9 7.9 7.9 7.8 7.7 7.6 7.6 7.5 7.5 7.4 7.3 7.2 7.2 7.1 7.0 6.9 6.8 6.5 6.2 6.0 5.9 5.8 5.7 5.6 5.5 5.4 5.3 5.3 5.2 5.2 5.1 5.1 5.1 5.1 5.1 5.2 5.2 5.2 5.2 5.1 5.2 5.2 5.2 5.3 5.2 5.1
7.8 7.8 7.9 8.0 8.1 8.1 8.2 8.0 7.9 7.8 7.8 7.7 7.5 7.5 7.4 7.4 7.4 7.3 7.4 7.4 7.1 6.9 6.8 6.6 6.4 6.1 5.9 5.7 5.5 5.4 5.3 5.2 5.1 5.0 5.0 5.0 4.9 5.0 5.1 5.2 5.2 5.3 5.3 5.3 5.3 5.3 5.2 5.2 5.2 5.2 5.1 5.1 5.0 5.0
7.9 7.9 8.0 7.9 8.0 8.0 7.9 8.0 7.9 7.9 7.7 7.5 7.4 7.5 7.4 7.2 7.0 6.9 6.8 6.7 6.6 6.5 6.4 6.2 6.0 5.8 5.6 5.4 5.3 5.3 5.3 5.3 5.2 5.2 5.2 5.2 5.2 5.3 5.3 5.4 5.4 5.4 5.3 5.3 5.2 5.2 5.1 5.0 5.0 5.0 5.0 5.0 5.1 5.2
7.4 7.4 7.4 7.1 7.1 7.0 7.0 6.9 6.9 7.0 7.0 7.0 7.0 6.9 6.8 6.7 6.5 6.3 6.2 6.2 6.3 6.2 6.1 5.9 5.8 5.7 5.7 5.6 5.5 5.4 5.4 5.4 5.4 5.4 5.4 5.4 5.3 5.3 5.3 5.2 5.2 5.1 5.1 5.0 5.0 5.0 5.0 5.1 5.1 5.2 5.2 5.3 5.4 5.6
6.9 6.8 6.7 6.7 6.5 6.4 6.4 6.3 6.3 6.3 6.2 6.2 6.2 6.2 6.2 6.3 6.2 6.4 6.5 6.5 6.5 6.5 6.3 6.2 6.0 5.9 5.8 5.7 5.6 5.6 5.5 5.4 5.4 5.4 5.3 5.3 5.3 5.3 5.3 5.3 5.3 5.3 5.3 5.4 5.5 5.5 5.5 5.5 5.5 5.5 5.5 5.6 5.7 5.9
6.9 6.8 6.7 6.5 6.3 6.2 6.1 6.0 6.0 6.0 6.0 6.0 6.0 6.1 6.1 6.3 6.4 6.5 6.5 6.5 6.4 6.3 6.1 6.0 5.9 5.8 5.6 5.6 5.5 5.5 5.5 5.5 5.5 5.6 5.7 5.7 5.7 5.7 5.8 5.9 6.0 6.1 6.1 6.1 6.1 6.1 6.0 6.0 5.9 5.8 5.8 5.9 6.0 6.2
7.0 7.0 7.0 6.8 6.8 6.6 6.6 6.5 6.4 6.4 6.4 6.4 6.5 6.5 6.5 6.5 6.5 6.4 6.4 6.3 6.2 6.1 6.0 5.9 5.9 5.8 5.8 5.8 5.7 5.8 5.8 5.9 5.9 6.0 6.1 6.1 6.2 6.2 6.2 6.2 6.3 6.4 6.4 6.4 6.3 6.3 6.2 6.2 6.2 6.1 6.0 6.0 6.1 6.2
7.4 7.4 7.4 7.2 7.0 6.9 6.9 6.8 6.8 6.8 6.7 6.7 6.7 6.6 6.6 6.5 6.5 6.4 6.4 6.3 6.3 6.2 6.2 6.1 6.1 6.0 6.1 6.1 6.1 6.1 6.1 6.0 6.0 6.0 6.0 6.0 5.9 5.8 5.6 5.6 5.9 6.0 6.0 6.1 6.1 6.2 6.2 6.1 6.1 6.1 6.1 6.1 6.1 6.2
7.4 7.4 7.4 7.3 7.2 7.1 7.0 7.0 6.9 6.9 6.9 6.8 6.8 6.7 6.6 6.6 6.6 6.6 6.6 6.5 6.4 6.4 6.3 6.2 6.1 6.0 5.9 5.9 5.8 5.7 5.7 5.7 5.7 5.6 5.6 5.6 5.7 5.7 5.5 5.4 5.4 5.6 5.5 5.6 5.6 5.6 5.6 5.6 5.5 5.5 5.6 5.6 5.7 5.8
7.4 7.3 7.3 7.3 7.2 7.1 7.1 7.1 7.1 7.1 7.0 6.9 6.8 6.8 6.8 6.8 6.7 6.5 6.4 6.3 6.1 5.9 5.8 5.7 5.7 5.6 5.6 5.6 5.6 5.6 5.6 5.6 5.6 5.5 5.5 5.5 5.4 5.5 5.6 5.5 5.3 5.2 5.1 5.1 5.1 5.3 5.3 5.4 5.4 5.3 5.3 5.4 5.4 5.5
Wind_Speed
33 34 32 32 32 32 29 26 34 33 29 24 20 21 23 19 20 8 7 17 11 5 8 5 6 5 3 4 6 5 5 1 2 4 4 5 4 7 4 6 8 9 9 5 4 4 10 7 4 7 3 4 6 4
37 34 33 31 31 32 30 28 29 36 27 25 22 24 25 23 19 16 7 8 10 4 4 4 2 1 1 1 5 8 2 6 6 3 2 3 3 3 5 4 3 3 7 6 10 6 0 12 3 3 3 5 3 6
36 34 33 32 30 31 31 27 26 35 29 25 24 21 23 21 20 15 6 8 7 5 2 3 5 4 3 1 1 5 2 4 4 3 4 3 4 4 5 6 5 3 5 3 1 3 4 7 4 3 3 5 6 7
36 37 33 32 29 30 28 28 25 31 30 25 21 21 22 22 17 14 6 6 8 3 5 3 3 4 4 3 3 2 2 4 5 2 3 3 3 5 4 1 5 4 8 6 4 2 6 2 4 7 9 9 9 7
37 37 31 33 28 29 28 27 26 28 29 23 21 21 21 21 17 17 7 8 11 8 4 3 3 3 3 5 6 4 5 4 2 2 2 3 3 3 1 1 4 5 7 6 6 5 3 2 9 10 10 8 7 7
37 37 29 30 26 26 26 25 25 26 27 22 22 22 19 20 7 3 3 2 5 8 4 3 2 2 2 4 6 6 4 2 2 3 3 3 1 4 4 4 3 5 3 1 5 4 5 11 9 5 10 8 7 8
34 27 23 24 23 23 25 24 21 26 25 21 20 21 19 9 2 3 2 3 10 4 3 4 3 2 3 3 1 2 2 2 2 2 3 3 2 4 2 4 4 5 8 12 12 12 7 4 5 8 10 7 10 7
20 21 21 19 20 22 22 18 22 28 27 23 18 17 10 10 7 2 1 6 3 2 3 4 2 3 2 3 2 1 3 2 1 2 1 2 2 1 3 3 7 8 11 8 4 4 6 11 10 8 8 7 7 6
16 18 17 16 18 20 15 17 24 27 28 13 12 9 3 2 2 2 5 1 5 3 2 2 6 4 3 2 2 1 2 2 0 1 2 2 2 4 1 8 9 8 4 9 8 10 11 12 10 8 7 7 7 5
15 14 14 14 18 14 10 17 26 29 11 9 2 2 2 2 5 5 2 1 1 1 2 2 2 3 2 2 2 3 0 3 3 1 2 2 1 3 4 2 6 7 11 13 13 7 9 9 9 7 5 5 5 5
10 11 12 15 15 9 9 21 28 0 4 2 2 2 0 2 1 1 2 2 2 2 1 1 2 3 1 2 3 0 2 2 3 2 2 2 1 2 3 6 7 9 8 5 4 7 6 9 9 8 7 5 5 4
8 9 12 12 12 8 15 24 6 3 2 2 3 3 1 1 1 1 0 0 2 3 2 3 3 2 2 2 3 1 2 1 2 3 2 1 1 4 5 7 8 9 9 8 8 9 9 9 7 7 6 5 4 4
6 7 7 9 13 14 11 7 15 13 6 2 1 1 1 1 2 2 3 1 2 1 2 2 3 2 2 2 3 2 3 2 3 2 2 1 4 4 5 6 8 8 10 10 10 9 10 9 8 6 6 4 5 4
5 6 8 11 14 13 13 17 16 7 1 1 1 2 2 1 3 2 1 2 0 2 6 4 3 2 2 3 2 4 2 1 2 2 0 2 4 6 5 5 7 6 8 9 7 7 8 8 7 6 5 3 4 3
5 7 10 10 10 9 13 15 13 3 2 3 3 3 3 1 2 1 1 2 3 2 2 3 3 2 3 4 2 3 2 3 2 1 1 1 5 7 6 5 7 7 6 5 4 5 5 5 5 4 2 2 2 1
5 6 4 8 9 16 13 11 5 2 2 3 6 3 1 2 3 3 3 3 4 2 1 2 3 3 4 2 3 3 3 2 1 1 1 3 3 4 5 6 5 5 6 5 4 3 4 5 5 3 0 1 1 2
3 2 10 20 18 18 20 3 2 5 3 4 3 3 2 4 3 3 3 3 3 1 2 2 4 2 2 3 3 3 3 2 1 1 1 2 5 6 6 6 6 6 6 5 4 4 3 3 3 2 2 3 3 3
2 4 11 11 8 6 3 5 3 4 5 3 3 3 2 3 2 3 3 3 2 2 2 2 3 4 3 3 1 1 2 2 3 3 3 4 4 5 5 6 5 5 5 4 4 4 3 3 3 3 3 3 1 2
8 9 10 12 7 3 3 4 3 3 3 2 2 2 2 2 4 4 3 4 0 1 3 3 5 3 2 2 2 2 1 1 2 2 2 3 4 4 5 5 5 4 5 4 4 3 3 4 2 2 2 2 1 2
21 18 14 21 10 3 4 3 3 3 3 2 2 3 2 2 2 2 4 5 3 3 6 5 3 2 1 1 2 2 1 2 3 2 2 1 2 4 4 3 3 4 3 3 2 4 2 1 1 2 2 3 2 2
7 7 13 6 3 5 3 3 4 2 1 2 2 2 2 2 3 4 4 5 5 3 3 2 2 2 2 2 2 2 3 2 1 2 2 3 2 2 3 2 3 3 2 2 2 2 4 2 2 3 2 1 2 2
2 9 3 4 3 4 4 3 2 1 2 1 2 2 3 3 3 3 2 5 3 1 1 2 2 2 2 3 3 3 3 3 6 5 8 7 3 2 2 2 2 2 1 1 2 2 2 2 2 3 3 3 2 1
6 4 4 5 5 6 2 2 4 5 3 2 2 4 3 3 2 2 3 2 1 1 1 0 1 2 2 2 3 6 7 5 4 4 4 3 3 2 2 2 0 1 1 1 1 1 1 3 3 2 2 1 1 1
8 5 5 4 5 1 2 5 3 3 3 3 3 3 4 2 3 3 3 2 1 3 4 6 2 1 2 4 3 3 4 3 3 4 4 2 3 2 2 2 1 2 1 1 1 1 1 2 2 1 0 1 0 1
6 8 5 6 3 5 5 5 5 4 3 3 3 3 3 3 3 3 2 1 2 3 4 5 5 5 3 2 2 3 5 4 2 3 3 2 1 1 1 1 1 1 1 0 1 1 1 1 1 1 1 2 3 4
7 4 4 3 4 4 1 3 4 2 2 3 1 2 1 2 3 2 1 1 2 2 3 4 4 3 3 3 2 2 3 4 2 2 2 2 2 2 1 2 2 1 2 1 1 1 2 2 2 3 3 5 8 2
5 4 3 2 1 1 3 2 2 4 4 4 3 4 2 3 2 1 1 1 1 2 3 3 3 3 2 2 2 2 2 2 2 1 1 2 2 2 2 1 1 2 2 2 2 2 2 3 3 3 3 2 3 3
2 3 3 5 4 3 2 3 3 3 3 4 2 4 2 1 0 1 1 0 1 3 2 1 2 2 2 2 2 3 3 3 2 2 2 2 1 1 1 2 1 9 4 2 3 3 4 4 4 4 5 4 3 3
3 3 2 5 4 4 4 3 2 2 4 2 2 2 0 1 0 0 1 1 2 2 2 2 2 3 2 2 2 2 2 3 3 3 2 0 2 3 2 4 3 3 3 2 8 7 5 7 7 7 7 4 3 2
3 2 3 3 4 3 2 0 2 2 1 1 1 1 2 2 2 1 1 2 2 0 2 2 2 1 1 1 1 2 2 2 3 3 2 1 3 4 4 4 4 3 2 1 3 4 8 4 6 4 3 1 1 2
2 2 3 3 2 2 2 2 2 1 2 2 2 2 2 2 2 1 1 1 1 1 1 1 2 1 1 2 1 1 2 1 2 3 3 3 4 5 5 4 3 3 2 2 2 2 2 3 2 3 3 4 5 6
3 2 3 2 1 3 3 2 1 1 3 2 3 2 3 3 2 2 1 2 2 1 2 2 1 2 2 1 2 2 8 2 3 4 5 5 5 6 7 6 4 2 2 3 3 3 4 5 4 4 4 6 6 5
2 2 3 3 3 3 3 2 4 3 3 2 2 1 1 1 3 2 2 2 2 2 3 2 3 2 3 4 4 4 5 5 10 11 12 13 13 12 1 2 2 2 2 3 3 3 5 5 4 5 6 6 6 6
Wind_Direction
285 286 286 288 291 292 295 295 294 293 283 268 279 285 285 273 284 310 298 189 195 202 234 207 203 187 161 153 155 160 101 239 99 176 165 193 184 212 170 163 175 165 168 192 181 217 268 146 85 181 163 70 123 110
288 282 282 283 287 287 291 292 293 304 282 266 273 276 280 270 273 279 271 234 186 198 212 140 211 209 2 151 132 184 178 159 168 141 201 128 177 152 172 222 143 217 191 184 189 209 101 181 103 120 126 131 135 121
279 282 279 280 283 285 288 292 294 298 291 266 262 273 284 268 273 264 272 288 190 182 214 163 194 163 123 141 310 139 254 173 197 176 153 173 180 144 176 225 178 245 175 212 119 203 192 159 96 97 88 110 105 109
276 278 277 276 277 281 285 284 288 296 291 272 267 269 281 274 282 271 250 268 260 135 218 197 106 157 135 152 171 137 144 69 100 82 135 160 168 181 202 218 187 182 144 177 241 159 66 123 113 124 110 110 103 95
273 269 268 272 270 275 281 286 291 294 291 270 274 277 276 277 272 276 242 254 267 205 183 130 79 147 139 154 156 161 146 134 148 126 140 211 131 124 113 34 221 180 173 181 220 151 133 143 138 137 131 130 133 126
268 267 254 261 264 273 278 284 282 290 288 268 269 281 268 274 276 262 262 147 341 227 129 157 57 85 121 172 153 152 127 120 148 152 189 207 128 170 177 210 236 177 98 106 157 117 97 121 118 109 127 126 115 111
277 259 244 250 261 270 274 277 289 298 293 272 271 273 268 197 161 233 213 305 329 317 135 122 168 112 78 92 67 96 54 99 127 143 208 131 211 165 190 212 143 106 103 98 113 109 90 167 152 128 123 120 114 110
257 242 240 250 263 272 276 287 302 296 293 276 281 260 206 148 129 236 313 341 356 19 30 120 93 126 197 143 126 144 111 117 48 136 126 131 117 80 237 109 105 106 101 88 50 34 114 116 111 107 114 122 121 118
236 235 240 254 267 274 275 287 303 294 299 267 291 137 71 41 200 266 291 62 66 76 115 127 146 162 169 96 112 103 143 136 246 145 148 161 138 213 333 149 151 153 135 139 103 98 110 118 123 126 128 127 123 125
226 228 246 264 274 282 281 304 292 296 268 261 196 121 216 209 296 306 20 106 72 69 59 85 118 118 145 137 101 110 124 144 150 151 131 169 177 68 18 92 133 136 133 137 124 128 128 133 144 141 131 120 120 130
226 238 256 269 276 285 297 293 293 331 359 76 149 208 32 346 95 193 188 199 145 95 74 97 102 119 288 121 118 51 134 168 147 152 183 157 202 67 56 84 107 124 124 100 102 109 134 142 142 132 123 115 119 124
238 250 265 274 297 315 289 284 254 157 203 148 124 107 127 179 195 145 72 148 33 148 130 113 101 96 94 90 99 98 106 193 128 140 127 144 87 114 106 97 88 95 97 86 90 107 110 115 120 114 115 120 115 109
254 280 293 305 311 305 296 115 106 113 86 53 85 124 194 312 174 182 162 107 86 89 144 140 103 100 97 67 78 109 77 57 123 62 88 80 138 125 109 105 91 91 99 98 93 92 97 97 93 107 115 104 107 94
293 309 316 321 318 331 340 137 129 110 76 90 149 84 69 28 50 21 29 67 40 86 98 83 63 79 79 65 56 79 54 149 62 62 37 155 158 138 117 112 113 102 100 102 98 102 106 112 110 103 108 125 118 116
317 318 313 309 323 51 98 102 75 47 30 32 16 48 55 147 13 348 335 64 32 43 70 99 79 76 65 87 48 116 95 75 67 138 127 119 135 135 130 118 119 113 104 101 98 106 112 115 119 114 97 111 118 118
307 326 315 321 51 98 96 68 36 30 52 49 37 52 45 71 12 27 22 38 10 7 348 55 96 68 53 86 70 46 90 77 117 41 84 100 94 96 114 113 110 114 118 123 119 120 127 133 140 164 134 149 197 193
47 331 100 106 94 63 34 56 34 42 41 38 32 11 2 62 50 20 13 360 320 26 47 50 64 108 97 59 51 15 111 142 133 96 50 101 133 134 125 121 121 121 118 121 118 121 125 122 117 124 155 236 230 245
28 117 123 108 79 54 36 20 63 49 52 14 45 3 30 22 47 27 1 329 23 47 43 94 114 57 59 88 24 12 113 70 52 61 62 74 95 107 120 124 125 129 136 137 136 135 136 164 175 196 200 222 233 261
81 76 72 53 62 81 52 26 26 80 32 19 31 2 36 38 24 33 350 338 33 124 93 41 61 56 63 43 39 349 66 140 139 91 43 47 80 107 114 112 121 130 142 145 162 180 187 196 192 175 181 164 200 252
72 51 43 48 50 57 55 13 11 61 52 11 17 23 36 24 331 359 6 7 17 45 36 38 38 19 33 299 321 313 11 101 114 92 79 76 73 108 126 134 136 132 126 128 161 169 142 145 211 206 212 213 211 243
39 360 27 49 45 54 78 12 38 45 42 62 343 11 51 17 25 14 4 348 55 31 49 28 16 305 331 335 321 336 23 54 84 148 161 145 158 122 116 102 129 147 152 163 180 246 211 195 222 199 218 232 216 216
17 23 52 34 73 46 73 6 64 2 60 42 47 29 35 31 1 359 315 46 56 357 7 346 319 317 14 9 331 349 324 50 46 57 68 107 111 118 143 166 156 174 178 180 186 198 213 198 193 211 214 240 246 236
29 29 45 24 68 37 339 354 60 1 70 351 19 41 16 11 300 349 69 83 107 311 282 309 302 338 59 2 41 36 36 54 57 46 54 75 76 88 105 96 90 153 177 215 121 139 186 237 272 185 221 229 176 267
37 46 40 46 41 36 4 18 23 32 30 33 49 26 354 313 328 53 72 54 24 4 7 354 5 38 44 45 50 35 17 49 72 49 20 64 82 40 66 88 61 51 65 96 123 182 228 262 276 19 214 156 220 239
66 355 43 3 350 48 34 14 356 40 51 1 68 2 332 3 64 58 89 304 14 8 0 355 15 32 60 64 67 58 27 21 45 85 10 20 70 67 49 62 36 24 31 5 265 242 259 252 276 266 252 221 234 239
67 313 59 341 343 55 348 42 21 8 75 42 357 257 6 63 62 56 85 328 13 11 3 7 356 2 43 24 40 26 6 345 339 87 9 9 24 98 67 43 21 58 7 348 328 306 284 256 255 260 259 276 280 259
55 333 329 21 309 6 38 27 29 66 49 28 347 352 23 58 36 98 112 32 24 11 340 349 347 1 12 22 43 26 3 10 63 145 306 19 36 38 83 106 294 269 274 264 268 266 277 287 284 273 269 274 246 231
139 23 47 327 38 4 76 45 37 32 11 344 290 31 57 48 23 22 37 300 9 333 318 360 19 360 360 11 359 344 332 339 13 20 2 4 346 304 320 299 259 312 358 295 238 232 246 255 258 256 251 250 254 230
38 340 68 28 25 41 43 42 38 36 353 330 2 51 61 36 108 345 3 335 335 7 37 6 340 344 353 358 14 11 13 15 83 77 87 338 349 315 357 334 320 319 303 289 312 310 268 248 243 233 227 212 220 204
330 353 82 47 70 20 267 227 254 282 328 99 300 355 4 328 263 222 15 17 50 148 231 237 276 38 351 54 320 346 359 43 53 104 135 217 256 289 305 302 304 301 308 312 305 309 332 360 345 3 86 120 191 227
324 44 66 57 109 249 238 287 310 279 21 9 343 125 235 278 306 281 169 189 167 58 43 343 328 324 87 35 82 39 319 307 347 310 267 255 269 280 285 284 284 301 306 302 307 303 311 325 324 324 289 268 267 283
17 60 112 87 302 295 16 50 342 38 333 37 335 355 353 29 327 283 227 110 54 358 280 160 203 277 236 249 257 251 273 292 303 302 298 288 284 277 278 273 286 286 296 300 296 289 281 276 281 283 283 282 280 276
38 40 46 79 27 9 330 56 16 354 16 15 321 257 220 189 238 268 288 192 185 207 232 235 240 250 251 248 253 276 300 301 302 314 321 310 321 323 101 175 293 281 266 297 298 295 300 297 283 284 290 289 290 291